Weather in Karaj

Iran     35°47′10″N   50°56′37″E
temp.,
°C
wind,
m/s
gust,
m/s
humid.,
%
clouds,
%
prec.,
mm/h
press.,
hPa
HPBL,
m
27 february, sat
sat2700:30+4ssw22430 0.0 1024269
03:30+3sse11450 0.0 1024150
06:30+3s01450 0.0 102444
09:30+4s21400 0.0 1024576
12:30+6s32330 0.0 10211059
15:30+8s22290 0.0 10191187
18:30+8s22300 0.0 1019947
21:30+7sse33340 0.0 1019623
28 february, sun
sun2800:30+6se12350 0.0 1019126
03:30+5se11360 0.0 101827
06:30+4sse01370 0.0 101822
09:30+6sse22320 0.0 1017446
12:30+9s22280 0.0 1014740
15:30+10ssw21250 0.0 1013848
18:30+10ssw11230 0.0 1014407
21:30+9s23280 0.0 1015134
1 march, mon
mon100:30+8ese22320 0.0 101553
03:30+7e01310 0.0 101422
06:30+7n11320 0.0 101522
09:30+10sw21270 0.0 1016339
12:30+11ssw212656 0.0 1016917
15:30+12wsw222354 0.0 10151538
18:30+12w222436 0.0 1017947
21:30+11nw232818 0.0 101999
2 march, tue
tue200:30+8nw57530 0.0 1020248
03:30+6nw576020 0.0 1020201
06:30+6nw566150 0.0 1021189
09:30+8nw554935 0.0 1021305
12:30+12nw662724 0.0 10201331
15:30+13wnw572112 0.0 10181878
18:30+12wnw46222 0.0 10191634
21:30+10wsw23292 0.0 1019185
3 march, wed
wed300:30+8nw45420 0.0 1018209
03:30+8nnw334430 0.0 1017123
06:30+7nw344165 0.0 101797
09:30+10nw453532 0.0 1017761
12:30+12wnw56250 0.0 10151780
15:30+13wnw57250 0.0 10132144
18:30+12nnw47300 0.0 10151544
21:30+10nw694110 0.1 10171485